Location: Kvislemark
(55.2515°N, 11.5445°E)
Time: 01:48:55
(UTC+00:00)

Daily predictions for brighter satellites

Satellite Brightness Start Highest point End
(mag) Time Altitude Azimuth Time Altitude Azimuth Time Altitude Azimuth
Cosmos 1536 Rocket 3.8 00:04:40 10° N 00:09:00 62° ENE 00:11:19 26° SSE
Cosmos 2219 Rocket 2.7 00:03:43 10° NW 00:09:02 42° WSW 00:11:13 29° SSW
Cosmos 1437 2.7 00:07:53 10° N 00:10:53 66° ENE 00:11:26 51° SE
Cosmos 1464 Rocket 4.0 00:08:47 28° SSW 00:12:19 82° WNW 00:18:34 10° N
Cosmos 1782 Rocket 3.7 00:12:54 35° SSW 00:14:38 66° WNW 00:18:58 10° N
Lacrosse 4 Rocket 1.3 00:13:01 36° SW 00:14:44 86° SE 00:18:57 10° NE
FALCON 9 DEB 3.1 00:15:50 37° WSW 00:16:56 60° S 00:20:23 10° ESE
Landsat 4 4.1 00:15:01 10° N 00:18:45 55° WNW 00:20:07 34° SW
IRAS Rocket 4.4 00:14:44 17° SSE 00:19:01 74° ENE 00:24:38 10° NNW
Cosmos 1354 Rocket 4.0 00:16:38 31° SSW 00:19:17 76° ESE 00:24:38 10° NNE
SL-16 R/B 2.9 00:15:15 10° NNW 00:20:52 54° NE 00:26:26 10° SE
SL-4 R/B 2.8 00:22:19 27° SE 00:22:19 27° SE 00:24:11 10° ESE
Cosmos 968 Rocket 3.6 00:19:12 27° SW 00:21:59 70° WNW 00:27:08 10° NNE
COSMOS 2428 3.5 00:21:54 10° NW 00:27:04 35° WSW 00:29:12 27° SSW
Nadezhda 4 Rocket 4.2 00:25:31 10° NNW 00:31:44 59° W 00:35:19 25° SSW
Cosmos 2360 Rocket 4.1 00:29:33 10° WNW 00:31:57 13° W 00:33:24 12° WSW
SL-16 R/B 2.6 00:28:37 17° SSE 00:33:42 86° ENE 00:40:01 10° NNW
Cosmos 1680 Rocket 4.4 00:29:17 10° NNW 00:34:23 48° NE 00:39:26 10° SE
CZ-2D R/B 3.0 00:29:10 10° NNE 00:34:25 44° E 00:38:05 19° SSE
BREEZE-M TANK 4.2 00:36:08 16° SE 00:36:08 16° SE 00:37:44 10° ESE
CENTAUR R/B 3.4 00:29:32 10° W 00:36:01 55° NNW 00:43:42 10° ENE
Cosmos 1607 4.1 00:30:31 10° NW 00:37:00 82° NE 00:43:29 10° SE
USA 267 3.2 00:31:48 10° ESE 00:38:22 88° SSW 00:44:58 10° WNW
Cosmos 2034 Rocket 4.1 00:35:41 26° SSW 00:39:28 74° WNW 00:45:49 10° N
GEOS 3 Rocket 3.9 00:34:28 10° NE 00:39:49 56° SE 00:42:46 26° SSW
KORONAS-FOTON 4.0 00:37:43 10° N 00:41:31 65° ENE 00:43:45 23° SSE
ADEOS II 3.8 00:38:25 10° NE 00:42:43 25° E 00:46:59 10° SE
Cosmos 1092 Rocket 4.0 00:37:38 10° NNW 00:43:55 72° W 00:48:01 22° S
Okean 2 Rocket 3.1 00:41:46 31° SSW 00:43:55 80° WNW 00:48:27 10° N
Cosmos 1975 Rocket 4.5 00:40:23 10° NNW 00:44:05 25° W 00:45:36 21° WSW
Cosmos 1980 3.9 00:40:49 10° NW 00:46:20 53° WSW 00:49:51 22° S
Cosmos 2333 Rocket 3.5 00:42:05 10° NW 00:46:29 23° WSW 00:48:11 20° SW
Helios 1B rocket 2.9 00:42:55 10° N 00:46:54 50° WNW 00:48:49 27° SW
Cosmos 1975 4.1 00:45:31 21° WSW 00:47:19 30° WNW 00:50:56 10° N
Cosmos 2297 Rocket 2.9 00:45:36 21° S 00:48:59 42° ESE 00:54:18 10° NE
Cosmos 2219 3.7 00:45:50 22° S 00:49:09 48° ESE 00:54:32 10° NE
Sich 1 Rocket 4.1 00:48:43 26° SW 00:50:50 48° WNW 00:55:07 10° N
Meteor 1-29 3.2 00:47:30 10° N 00:50:56 59° WNW 00:52:12 34° SW
Cosmos 1777 Rocket 4.3 00:49:00 24° S 00:52:05 61° ESE 00:57:20 10° NNE
Cosmos 44 Rocket 4.3 00:49:46 10° WNW 00:53:58 28° WSW 00:55:08 25° SW
UNK 3.7 00:52:22 23° S 00:55:18 74° WSW 01:00:01 10° NNW
Cosmos 2237 Rocket 2.5 00:50:55 10° NW 00:56:21 48° WSW 00:59:51 21° S
Cosmos 1300 Rocket 3.7 00:57:53 28° SSW 01:00:02 61° WNW 01:04:20 10° N
Cosmos 1503 Rocket 4.5 00:56:39 21° SW 01:00:11 55° NW 01:05:31 10° NNE
Cosmos 1626 3.0 00:57:26 10° N 01:01:04 47° ENE 01:04:26 12° SSE
CZ-4B R/B 4.4 00:56:44 10° NNE 01:01:13 38° E 01:04:55 14° SSE
DELTA 2 DEB (DPAF) 4.4 01:00:27 26° SSW 01:02:39 50° W 01:07:00 10° NNW
Okean 1 Rocket 3.4 01:01:02 21° S 01:03:46 61° E 01:08:05 10° NNE
Cosmos 923 Rocket 4.0 00:59:12 10° NNW 01:04:35 89° NE 01:09:55 10° SSE
CZ-4C R/B 3.1 01:04:19 30° S 01:05:47 59° WSW 01:09:19 10° NNW
Cosmos 2098 Rocket 4.3 01:06:36 10° N 01:10:53 48° ENE 01:16:16 10° SSE
SL-08 R/B 4.4 01:07:39 10° SE 01:12:24 49° ENE 01:17:11 10° N
Cosmos 158 Rocket 4.1 01:07:32 10° NNW 01:12:55 84° ENE 01:18:19 10° SSE
Cosmos 2151 Rocket 3.8 01:12:29 24° SW 01:14:57 58° WNW 01:19:20 10° N
Cosmos 1707 4.3 01:12:52 10° NW 01:15:53 21° W 01:17:05 19° WSW
Timation 2 Rocket 3.9 01:14:34 20° SW 01:18:58 89° NW 01:25:02 10° NE
SL-14 R/B 3.3 01:20:47 10° N 01:24:46 78° ENE 01:28:24 12° SSE
DNEPR-1 R/B 4.4 01:20:09 10° NW 01:25:54 45° WSW 01:30:37 10° SSE
ERBS 3.0 01:23:56 10° W 01:26:52 30° SW 01:29:48 10° SSE
Cosmos 1805 3.2 01:24:26 21° S 01:26:55 85° E 01:30:50 10° NNE
Meteor 1-15 Rocket 4.2 01:22:53 19° SSW 01:27:05 84° WNW 01:32:44 10° NNE
Cosmos 1943 4.4 01:22:13 10° NNW 01:27:39 46° NE 01:33:03 10° ESE
SJ 16-02 2.3 01:25:10 14° S 01:28:36 40° ESE 01:32:45 10° NE
Resurs 1-4 Rocket 2.2 01:30:06 10° NNE 01:35:23 72° WNW 01:39:24 18° SSW
Cosmos 2227 Rocket 2.3 01:33:34 18° SSW 01:37:54 75° ESE 01:43:36 10° NE
Cosmos 1674 3.6 01:34:40 10° NNW 01:38:01 32° W 01:39:47 21° SW
Cosmos 1455 Rocket 4.0 01:34:35 10° SSE 01:38:48 45° E 01:43:04 10° NNE
Cosmos 1892 Rocket 3.5 01:37:06 10° NNW 01:41:36 79° W 01:46:03 10° S
Cosmos 1733 3.1 01:42:54 18° SSW 01:45:42 85° WNW 01:49:34 10° N
USA 215 3.8 01:39:57 10° ENE 01:46:12 44° SE 01:51:29 14° SSW
ATLAS 3B R/B 3.5 01:42:49 10° W 01:49:13 49° NNW 01:55:46 10° NE
Cosmos 724 4.4 01:43:14 10° NW 01:49:14 89° NE 01:55:20 10° SE
Cosmos 2279 Rocket 4.0 01:44:46 14° SSW 01:50:07 75° WNW 01:56:21 10° N
COBE Rocket 4.0 01:47:33 13° S 01:51:34 50° W 01:56:06 10° NNW
FALCON 9 DEB 3.7 01:50:28 10° W 01:53:41 35° SSW 01:56:54 10° SE
Lacrosse 4 Rocket 3.2 01:50:20 10° W 01:53:54 25° NNW 01:57:26 10° NNE
Cosmos 1634 Rocket 4.4 01:50:26 15° SW 01:55:26 49° WNW 02:01:30 10° N
Cosmos 2082 3.9 01:53:30 13° SSW 01:58:28 66° ESE 02:04:03 10° NE
Cosmos 1340 Rocket 3.8 01:54:56 10° S 01:58:44 44° E 02:02:32 10° NNE
Cosmos 2112 Rocket 4.1 01:53:38 10° NNW 01:58:46 55° WSW 02:03:50 10° S
SL-4 R/B 2.8 01:58:02 14° WSW 01:59:55 21° SSW 02:02:32 10° SSE
Meteor 1-24 Rocket 3.9 01:58:06 10° NNW 02:03:26 49° W 02:08:35 10° SSW
ERS-2 3.7 02:00:42 10° SE 02:04:06 38° ENE 02:07:31 10° N
CBERS-1 4.0 01:59:06 10° NNE 02:04:16 83° WNW 02:09:09 11° SSW
SL-16 R/B 2.7 01:59:37 10° NW 02:04:53 39° WSW 02:10:07 10° S
Cosmos 1953 4.1 02:01:40 10° SSE 02:05:13 30° E 02:08:48 10° NNE
Meteor 2-5 Rocket 4.3 02:01:49 10° NNW 02:07:01 38° W 02:11:59 11° SSW
Cosmos 1726 3.7 02:05:55 10° SSE 02:09:15 33° E 02:12:35 10° NNE
ARIANE 5 R/B 3.0 02:06:30 10° NNE 02:11:43 63° ESE 02:16:54 10° S
Cosmos 1937 Rocket 4.4 02:07:48 10° S 02:12:52 48° ESE 02:17:59 10° NE
NPP 4.2 02:08:21 10° N 02:13:31 47° WNW 02:18:22 11° SW
CZ-2D R/B 2.9 02:09:21 10° N 02:14:29 42° WNW 02:19:24 11° SW
IDEFIX/ARIANE 42P 3.5 02:09:31 10° NNE 02:14:33 47° E 02:19:34 10° S
H-2A R/B 2.5 02:11:56 10° SSE 02:16:00 63° ENE 02:20:04 10° N
Cosmos 1680 Rocket 4.1 02:11:38 10° NW 02:16:26 37° WSW 02:21:10 10° S
Cosmos 1898 Rocket 3.8 02:11:58 10° SSW 02:17:09 65° ESE 02:22:20 10° NNE
GEOS 3 Rocket 4.3 02:12:36 10° NE 02:17:52 54° NNW 02:23:08 10° WSW
SL-16 R/B 3.8 02:13:42 12° SW 02:18:06 23° W 02:23:01 10° NW
AQUA 4.5 02:15:35 10° N 02:20:06 43° WNW 02:24:26 11° SW
USA 267 3.5 02:15:33 10° SE 02:21:49 47° SW 02:28:08 10° WNW
ADEOS II 2.2 02:17:40 10° NNE 02:22:54 69° WNW 02:28:08 10° SSW
NOSS 3-1 (C) 4.2 02:17:48 10° SSW 02:23:06 44° SE 02:29:15 10° NE
Cosmos 1544 Rocket 3.7 02:20:47 10° S 02:25:15 85° ESE 02:29:46 10° NNE
IRS-1D 3.8 02:21:50 10° N 02:26:45 56° WNW 02:31:43 10° SW
CENTAUR R/B 4.1 02:21:15 10° WNW 02:28:04 46° N 02:35:58 10° ENE
CZ-4C R/B 3.1 02:25:24 10° SSE 02:28:37 74° ENE 02:31:58 10° NNW
Cosmos 990 Rocket 4.1 02:23:37 10° SSW 02:28:50 83° ESE 02:34:02 10° NNE
Cosmos 1766 4.4 02:26:32 11° SW 02:29:49 29° WNW 02:33:16 10° N
Okean 1-7 Rocket 4.2 02:25:58 10° NNW 02:30:03 38° W 02:34:08 10° SSW
Cosmos 2263 Rocket 3.5 02:26:20 10° S 02:31:21 36° ESE 02:36:23 10° NE
Cosmos 1703 4.2 02:28:20 10° N 02:32:16 54° ENE 02:36:10 10° SSE
CZ-4B R/B 3.9 02:29:32 10° ESE 02:32:18 25° ENE 02:35:00 10° N
Meteor 1-22 Rocket 4.4 02:27:19 10° SSW 02:32:29 54° WNW 02:37:44 10° N
IRS-1C 4.2 02:27:09 10° NNE 02:32:32 78° WNW 02:37:51 10° SSW
Cosmos 2297 Rocket 2.7 02:27:31 10° WSW 02:33:01 50° NW 02:38:34 10° NNE
Cosmos 2219 3.9 02:28:00 10° WSW 02:33:24 45° NW 02:38:49 10° NNE
Cosmos 1626 3.7 02:33:20 10° NW 02:36:02 19° W 02:38:44 10° SW
Cosmos 2266 Rocket 4.4 02:30:43 10° NNW 02:36:46 46° W 02:42:43 10° SSW
Cosmos 1602 Rocket 3.5 02:35:10 10° NNW 02:39:35 75° W 02:43:54 10° S
CZ-4B R/B 4.1 02:35:30 10° N 02:39:59 40° WNW 02:44:23 10° SW
Meteor 1-28 Rocket 4.0 02:37:28 10° SSW 02:40:56 33° W 02:44:26 10° NNW
CZ-2C R/B 4.2 02:38:42 10° NNE 02:42:42 29° E 02:46:41 10° SSE
Cosmos 1603 3.8 02:38:56 10° NW 02:44:37 61° WSW 02:50:13 10° SSE
Meteor 2-21 Rocket 4.4 02:39:28 10° NNW 02:45:33 78° W 02:51:36 10° S
Cosmos 1470 3.1 02:42:19 10° SSW 02:46:12 52° WNW 02:50:08 10° N
SL-08 R/B 4.2 02:45:58 10° SSW 02:50:24 32° W 02:54:52 10° NNW
